Location: Benjestown
(35.2518°N, 90.0554°W)
Time: 05:34:28
(UTC+00:00)

Daily predictions for brighter satellites

Satellite Brightness Start Highest point End
(mag) Time Altitude Azimuth Time Altitude Azimuth Time Altitude Azimuth
PSLV R/B 4.1 00:00:19 10° SE 00:03:51 30° ENE 00:07:23 10° N
Okean 2 Rocket 3.8 00:02:25 10° SSE 00:06:16 30° E 00:08:01 22° NE
RESURS DK-1 3.6 00:03:27 10° N 00:05:59 22° NE 00:05:59 22° NE
BREEZE M DEB (TANK) 4.1 00:06:53 10° S 00:09:10 16° SE 00:09:18 16° SE
Nadezhda 4 Rocket 4.5 00:05:32 10° NNE 00:11:14 35° ENE 00:16:50 10° SE
Geosat FO 3.9 00:09:20 10° SSE 00:12:14 85° ENE 00:15:07 10° NNW
ISS -1.9 00:09:36 10° W 00:12:26 25° NNW 00:14:17 16° NNE
SJ 16-02 1.7 00:09:41 10° S 00:13:41 39° E 00:15:05 30° ENE
CZ-2D R/B 3.4 00:09:43 10° SSE 00:13:42 60° ENE 00:17:48 10° N
Spot 4 Rocket 4.0 00:10:58 10° SSE 00:15:55 55° ENE 00:20:54 10° N
Helios 1A Rocket 2.5 00:17:58 13° N 00:20:59 77° WNW 00:24:20 10° SSW
USA 215 3.6 00:17:56 10° SSE 00:24:24 66° SW 00:30:54 10° NW
ATLAS 5 CENTAUR R/B 1.9 00:19:58 10° NNW 00:24:48 84° ENE 00:30:46 10° SSE
Cosmos 1833 Rocket 3.7 00:23:37 10° NNW 00:29:02 49° WSW 00:34:25 10° S
Cosmos 371 Rocket 3.4 00:26:19 10° S 00:30:53 48° ESE 00:31:38 44° ENE
Aureole 3 Rocket 3.7 00:28:02 10° SSW 00:31:07 37° W 00:33:58 10° N
MOS 1 Rocket 3.8 00:27:13 10° S 00:31:21 52° W 00:35:36 10° NNW
Cosmos 1656 Rocket 4.2 00:29:18 10° SSE 00:33:51 35° ESE 00:33:51 35° ESE
Cosmos 2058 2.6 00:30:37 10° N 00:34:34 70° E 00:38:31 10° SSE
Cosmos 304 Rocket 3.6 00:35:05 10° S 00:39:44 63° ESE 00:40:27 55° ENE
NOAA 6 3.9 00:36:03 10° SSE 00:41:07 62° ENE 00:46:12 10° N
Cosmos 1763 Rocket 3.5 00:37:58 10° NNW 00:43:11 80° WSW 00:48:16 10° SSE
Cosmos 540 Rocket 3.3 00:40:48 10° NNW 00:45:56 90° N 00:51:02 10° SSE
Cosmos 1464 Rocket 4.2 00:41:44 10° SSW 00:48:02 74° W 00:54:19 10° N
Cosmos 2151 Rocket 4.0 00:43:54 10° SSW 00:48:18 62° W 00:52:22 12° N
OAO 3 Rocket 2.9 00:44:29 10° W 00:49:08 83° S 00:49:21 79° ESE
Cosmos 1400 Rocket 2.9 00:45:25 10° SSW 00:49:13 69° W 00:49:28 66° NW
Cosmos 2251 Rocket 4.3 00:45:33 10° SW 00:50:39 52° WNW 00:55:23 12° N
SL-19 R/B 4.2 00:49:12 10° S 00:54:28 73° WSW 00:59:41 10° NNW
Sich 1 Rocket 3.6 00:50:43 10° S 00:55:13 84° W 00:55:44 69° N
Cosmos 2034 Rocket 3.9 00:53:09 10° S 00:59:18 89° E 01:05:33 10° N
Geosat 4.2 01:00:33 53° N 01:00:33 53° N 01:04:32 10° NNW
USA 281 4.2 01:07:16 31° NNE 01:07:16 31° NNE 01:11:00 10° N
Meteor 2-1 Rocket 4.2 00:59:46 10° S 01:05:36 85° E 01:07:23 48° NNE
Okean 1 Rocket 3.5 01:02:24 10° SSW 01:06:43 61° W 01:06:43 61° W
Cosmos 2082 Rocket 2.9 01:24:15 10° NNW 01:28:04 45° NW 01:28:04 45° NW
Cosmos 2344 4.4 01:39:42 10° NNW 01:45:44 45° NNE 01:45:44 45° NNE
SJ 16-02 4.1 01:49:28 10° W 01:51:42 15° WNW 01:51:42 15° WNW
SL-16 R/B 4.4 09:30:51 10° SSE 09:32:31 20° SSE 09:32:31 20° SSE
SL-16 R/B 4.3 09:36:42 10° SSE 09:41:02 23° E 09:45:24 10° NE
Cosmos 1802 Rocket 4.0 10:06:58 33° N 10:10:00 78° E 10:16:11 10° S
SJ 16-02 3.5 10:18:05 13° NNE 10:20:54 23° ENE 10:24:19 10° ESE
Cosmos 2237 Rocket 4.0 10:24:59 18° N 10:24:59 18° N 10:26:32 10° N
Cosmos 2278 Rocket 2.4 10:25:22 55° SSW 10:25:22 55° SSW 10:29:57 10° S
Cosmos 2056 Rocket 3.6 10:21:55 32° S 10:24:27 78° ESE 10:29:51 10° NNE
Cosmos 1943 Rocket 2.7 10:28:04 43° SSW 10:28:04 43° SSW 10:31:54 10° S
USA 229 DEB 3.8 10:23:41 14° SSW 10:28:35 60° ESE 10:34:43 10° NE
USA 229 3.8 10:23:47 13° SSW 10:28:47 59° ESE 10:34:54 10° NE
Cosmos 2016 Rocket 3.9 10:26:26 10° N 10:32:48 82° W 10:39:05 10° S
Cosmos 407 Rocket 3.6 10:33:46 54° SSW 10:33:46 54° SSW 10:37:55 10° S
Cosmos 1932 4.4 10:36:40 36° NNW 10:39:36 83° WSW 10:46:06 10° SSE
USA 267 3.6 10:33:53 10° NNE 10:39:58 44° NW 10:40:53 41° WNW
Cosmos 1782 Rocket 3.3 10:42:02 75° NW 10:42:20 83° W 10:46:39 10° S
IRS-1D 3.9 10:38:48 10° NNE 10:43:40 59° ESE 10:48:31 10° S
Cosmos 1371 Rocket 3.9 10:41:01 27° SSW 10:43:56 72° WNW 10:49:15 10° NNE
Iridium 4 Rocket 3.1 10:47:39 55° SW 10:47:39 55° SW 10:51:04 10° S
ATLAS 3B R/B 2.9 10:41:58 10° SSW 10:49:19 89° ESE 10:57:10 10° NNE
Cosmos 1300 Rocket 3.7 10:51:06 49° SW 10:51:06 49° SW 10:54:33 10° S
FengYun 1-2 T 4.1 10:44:45 10° NNE 10:50:23 85° WNW 10:56:00 10° SSW
Cosmos 1869 4.1 10:47:38 14° N 10:50:27 43° E 10:53:48 10° SSE
Cosmos 371 Rocket 4.3 10:45:52 10° N 10:50:33 46° ENE 10:55:10 10° SE
Chandra Rocket (1) 3.6 10:54:13 28° SW 10:56:32 45° S 11:09:44 10° ESE
Cosmos 1812 4.2 10:54:15 10° NNE 10:56:45 26° E 10:59:14 10° SE
Cosmos 304 Rocket 4.3 10:53:29 10° N 10:58:11 58° ENE 11:02:51 10° SSE
CZ-4 R/B 3.9 10:54:11 10° NNE 10:58:59 77° ESE 11:03:41 10° S
Cosmos 1378 Rocket 4.0 10:59:57 10° S 11:04:08 61° E 11:08:21 10° NNE
Cosmos 2242 Rocket 3.4 11:03:42 10° SSW 11:08:03 70° W 11:12:27 10° N
ATLAS CENTAUR Rocket 4.3 11:08:16 10° SSW 11:11:14 18° SE 11:15:39 10° E
NOAA 12 4.1 11:06:22 10° NNE 11:11:43 89° WNW 11:17:01 10° SSW
Cosmos 1656 Rocket 3.8 11:06:35 10° NNW 11:12:17 76° ENE 11:17:54 10° SSE
USA 234 4.0 11:06:35 10° ESE 11:12:49 48° NE 11:19:03 10° NNW
In-Cosmos 22 Rocket 4.2 11:08:22 10° SSW 11:14:10 74° W 11:19:59 10° N
CZ-3 R/B 2.8 11:03:33 15° WSW 11:17:00 55° S 11:22:33 10° ESE
Cosmos 2251 Rocket 3.9 11:18:51 16° NW 11:22:39 41° W 11:27:38 10° S
SL-16 R/B 2.5 11:19:27 10° SW 11:24:47 42° WNW 11:30:10 10° N
Cosmos 2061 Rocket 4.2 11:20:06 10° NNW 11:25:56 45° W 11:31:47 10° SSW
H-2A R/B 3.3 11:31:29 13° SW 11:33:26 27° S 11:39:01 10° ESE
Cosmos 1452 Rocket 3.5 11:28:18 10° SSW 11:33:31 86° ESE 11:38:46 10° NNE
Aureole 3 Rocket 4.2 11:30:42 10° NNW 11:36:27 72° W 11:44:26 10° S
Cosmos 1331 Rocket 4.1 11:42:03 10° SSW 11:47:10 53° WNW 11:52:18 10° N
Cosmos 1464 Rocket 4.1 11:41:23 10° N 11:47:32 80° E 11:53:38 10° S
SKYMED 2 4.1 11:51:19 10° SSW 11:55:19 36° W 11:59:20 10° NNW
Hubble Space Telescope 3.5 11:54:28 10° S 11:55:37 11° SSE 11:56:47 10° SE
